Location: Dal�� Lhota
(48.7500°N, 14.0167°E)
Time: 02:14:12
(UTC+00:00)

ARIANE 5 R/B - Pass Details

Date: 24 September 2020
Orbit: 620 x 657 km, 98.2° (Epoch: 23 October)

Event Time Altitude Azimuth Distance (km) Brightness Sun altitude
Exits shadow 18:42:31 19° 54° (NE) 1,506 4.2 -17.9°
Drops below altitude 10° 18:45:11 10° 16° (NNE) 1,999 5.2 -18.3°
Sets 18:47:53 0° 359° (N) 2,910 6.3 -18.7°
